Change the Weather History Date:

Thursday, January 30, 2014

  Actual Average Record
Temperature  
Mean Temperature 42 °F -  
Max Temperature 55 °F 48 °F 63 °F (2009)
Min Temperature 30 °F 28 °F 12 °F (2004)
Degree Days  
Heating Degree Days 22    
Moisture  
Dew Point 16 °F    
Average Humidity 37    
Maximum Humidity 55    
Minimum Humidity 23    
Precipitation  
Precipitation 0.00 in - - ()
Sea Level Pressure  
Sea Level Pressure 29.75 in    
Wind  
Wind Speed 20 mph (SE)    
Max Wind Speed 31 mph    
Max Gust Speed 36 mph    
Visibility 10 miles    
Events      
Averages and records for this station are not official NWS values.
T = Trace of Precipitation, MM = Missing Value Source: NWS Daily Summary

Daily Weather History Graph

Daily Weather History Graph

Search for Another Location

Airport or City:

Trip Planner

Search our weather history database for the weather conditions in past years. The results will help you decide how hot, cold, wet, or windy it might be!

Date:

Astronomy

Jan. 30, 2014 Rise Set
Actual Time 7:37 AM CST 6:03 PM CST
Civil Twilight 7:10 AM CST 6:29 PM CST
Nautical Twilight 6:40 AM CST 7:00 PM CST
Astronomical Twilight 6:10 AM CST 7:30 PM CST
Moon 7:06 AM CST (1/30) 6:14 PM CST (1/30)
Length of Visible Light 11h 19m
Length of Day
10h 25m
Waning Crescent, 0% of the Moon is Illuminated
Jan 30
Waning Crescent
Jan 30
New
Feb 6
First Quarter
Feb 14
Full
Feb 22
Last Quarter

Hourly Weather History & Observations

Time (CST) Temp. Windchill Dew Point Humidity Pressure Visibility Wind Dir Wind Speed Gust Speed Precip Events Conditions
12:53 AM 33.1 °F 20.1 °F 10.9 °F 40% 29.86 in 10.0 mi South 25.3 mph 32.2 mph N/A   Clear
1:53 AM 32.0 °F 18.1 °F 10.9 °F 42% 29.81 in 10.0 mi South 27.6 mph 35.7 mph N/A   Clear
2:53 AM 32.0 °F 17.4 °F 10.9 °F 42% 29.76 in 10.0 mi South 31.1 mph - N/A   Clear
3:53 AM 30.9 °F 17.2 °F 10.9 °F 43% 29.74 in 10.0 mi South 25.3 mph 33.4 mph N/A   Clear
4:53 AM 30.9 °F 16.7 °F 10.9 °F 43% 29.71 in 10.0 mi South 27.6 mph 34.5 mph N/A   Clear
5:53 AM 30.0 °F 15.7 °F 10.9 °F 45% 29.70 in 10.0 mi South 26.5 mph 32.2 mph N/A   Clear
6:53 AM 30.9 °F 17.8 °F 10.9 °F 43% 29.71 in 10.0 mi South 23.0 mph - N/A   Clear
7:53 AM 30.9 °F 18.4 °F 10.9 °F 43% 29.72 in 10.0 mi South 20.7 mph - N/A   Clear
8:53 AM 33.1 °F 20.1 °F 12.9 °F 43% 29.70 in 10.0 mi South 25.3 mph - N/A   Clear
9:53 AM 37.9 °F 26.6 °F 14.0 °F 38% 29.72 in 10.0 mi South 25.3 mph 31.1 mph N/A   Clear
10:53 AM 45.0 °F 36.2 °F 15.1 °F 30% 29.74 in 10.0 mi SSW 24.2 mph - N/A   Clear
11:53 AM 48.0 °F - 16.0 °F 28% 29.73 in 10.0 mi SSW 18.4 mph - N/A   Clear
12:53 PM 52.0 °F - 16.0 °F 24% 29.73 in 10.0 mi WSW 11.5 mph - N/A   Clear
1:53 PM 55.0 °F - 17.1 °F 23% 29.72 in 10.0 mi Variable 3.5 mph - N/A   Clear
2:53 PM 55.9 °F - 19.0 °F 24% 29.72 in 10.0 mi NE 8.1 mph - N/A   Clear
3:53 PM 55.9 °F - 19.0 °F 24% 29.75 in 10.0 mi NE 4.6 mph - N/A   Clear
4:53 PM 54.0 °F - 19.0 °F 25% 29.76 in 10.0 mi NE 6.9 mph - N/A   Clear
5:53 PM 48.9 °F - 19.9 °F 32% 29.78 in 10.0 mi NE 8.1 mph - N/A   Clear
6:53 PM 44.1 °F 39.0 °F 19.0 °F 37% 29.79 in 10.0 mi NE 9.2 mph - N/A   Clear
7:53 PM 43.0 °F 37.7 °F 19.0 °F 38% 29.80 in 10.0 mi ENE 9.2 mph - N/A   Clear
8:53 PM 41.0 °F 35.8 °F 19.0 °F 41% 29.81 in 10.0 mi NE 8.1 mph - N/A   Clear
9:53 PM 39.0 °F 32.3 °F 19.9 °F 46% 29.78 in 10.0 mi NNE 10.4 mph - N/A   Clear
10:53 PM 37.0 °F 29.8 °F 19.9 °F 50% 29.78 in 10.0 mi NNE 10.4 mph - N/A   Clear
11:53 PM 36.0 °F 29.0 °F 21.0 °F 55% 29.77 in 10.0 mi North 9.2 mph - N/A   Clear